Theta_e
294 295 294 292 293 294 296 296 297 298 298 299 300 301 303 306 310 312 314 316 314 314 314 313 312 312 312 312 310 309 304 300 292 290 292 292 293 292 293 295 295 294 293
293 295 294 292 295 295 296 296 297 297 298 299 300 301 305 309 312 313 314 315 314 313 313 313 311 311 312 312 311 306 302 300 294 289 289 290 291 292 292 292 291 295 292
292 294 293 292 293 295 295 295 296 297 298 300 302 305 309 311 312 314 314 313 313 312 313 312 311 312 310 310 307 303 300 298 295 291 288 289 290 291 289 290 289 287 292
292 293 293 292 294 295 295 295 296 297 298 300 302 304 307 310 310 310 309 308 308 308 310 311 311 311 310 307 304 301 299 295 293 291 288 287 287 288 288 286 286 286 283
293 291 291 293 294 294 294 294 295 296 296 297 299 298 299 301 303 305 303 302 302 300 299 299 300 297 296 300 302 300 298 294 292 289 287 287 285 285 285 286 286 285 286
292 289 293 293 293 293 294 294 295 294 294 295 295 295 295 296 295 297 299 299 298 298 296 295 297 294 294 294 294 295 297 296 293 292 289 288 286 285 285 285 285 285 285
289 288 291 291 291 292 293 293 293 294 294 294 294 295 293 293 294 294 293 296 296 295 295 294 293 293 294 294 293 292 290 293 295 295 292 291 288 287 286 285 285 285 285
288 291 290 290 289 289 290 292 292 293 293 293 293 294 293 292 292 292 292 293 292 292 292 293 293 292 292 292 292 289 287 287 288 290 292 291 291 290 289 288 287 285 284
288 290 289 289 289 289 290 289 290 291 290 290 290 292 292 291 292 292 292 290 288 286 287 287 288 289 291 292 290 288 284 283 287 290 291 291 292 292 289 285 285 285 284
287 288 288 289 289 289 288 287 287 288 287 287 287 287 286 288 291 291 290 288 286 285 285 286 287 288 288 288 285 283 280 280 280 280 282 283 284 285 289 286 285 284 284
286 288 288 288 288 288 287 287 287 287 287 286 285 284 284 285 290 291 291 287 285 284 284 284 285 289 288 287 286 283 282 281 282 280 278 278 280 281 279 282 283 284 285
285 286 286 286 287 287 287 286 286 287 286 283 283 282 282 284 287 291 290 289 287 284 283 283 285 288 288 287 285 287 286 281 279 278 278 276 275 275 275 275 275 279 280
287 286 285 285 285 286 287 286 286 286 287 286 284 281 281 281 283 289 289 288 287 284 284 286 287 286 285 285 285 284 278 277 275 275 272 273 272 272 271 273 274 274 273
286 285 284 284 283 283 285 285 286 285 284 283 281 280 279 279 280 280 282 282 283 283 284 283 285 285 284 282 282 282 278 276 274 272 271 271 271 272 274 273 273 274 273
284 282 282 281 282 282 281 282 282 282 282 285 282 281 279 277 279 284 284 283 283 284 280 276 276 276 278 278 277 278 277 277 278 275 274 275 278 278 277 276 277 277 277
282 282 283 282 281 281 280 280 287 287 288 287 287 284 279 285 288 288 287 286 286 285 275 281 282 282 282 282 282 281 281 280 276 273 272 271 271 271 271 271 272 272 272
285 283 284 283 283 281 280 280 280 281 288 288 287 287 286 287 288 287 288 288 288 288 285 284 283 283 281 280 278 277 276 271 269 273 273 273 272 270 270 270 271 270 270
284 282 283 283 284 282 281 280 280 279 277 274 284 286 288 288 288 288 288 286 282 285 284 283 282 281 280 279 277 273 271 273 272 272 273 271 271 266 268 269 269 268 268
283 283 283 281 278 281 281 280 278 277 278 280 280 284 284 288 288 288 286 282 283 281 280 278 278 279 278 277 271 269 269 269 267 268 269 270 269 265 268 268 269 268 269
282 281 281 281 280 278 280 280 279 278 278 281 283 284 285 284 281 280 281 280 278 277 275 275 273 272 270 268 267 266 266 265 265 266 264 265 264 266 267 263 265 262 264
283 282 282 282 282 281 280 280 279 279 281 282 283 284 283 280 278 277 277 276 275 275 273 270 268 267 266 265 264 264 264 263 262 263 263 261 260 262 258 258 259 259 256
283 282 282 282 280 280 279 281 281 282 283 283 282 282 281 277 276 275 275 275 275 272 269 268 267 266 265 263 261 263 263 261 258 255 258 258 259 259 255 256 255 256 253
282 281 281 281 281 280 281 283 283 282 280 279 278 276 276 275 274 274 273 272 272 271 269 267 266 265 264 263 261 259 261 256 253 252 257 257 257 256 253 253 251 256 253
283 283 282 282 282 283 284 281 280 278 277 276 276 275 274 274 273 272 271 271 270 269 268 267 265 263 262 259 256 255 257 254 254 255 255 257 255 253 254 252 252 250 251
283 283 283 283 283 281 278 278 277 276 276 275 274 274 273 273 272 271 270 269 268 267 266 265 264 261 259 257 257 256 258 256 256 254 253 254 254 250 248 250 249 250 252
284 283 282 281 279 278 277 276 275 275 274 274 273 273 272 271 270 269 269 269 267 266 265 265 262 261 259 259 258 260 261 260 256 255 252 254 254 252 251 249 248 248 249
Wind_Speed
3 3 1 3 4 3 2 3 4 5 5 4 5 3 4 5 5 5 4 8 9 8 7 7 6 5 4 3 4 3 3 3 5 2 2 2 2 3 2 3 1 3 2
3 3 2 3 3 3 3 4 4 5 6 4 4 5 5 6 5 4 6 6 8 8 8 8 7 4 5 4 3 4 4 3 4 4 2 2 1 2 2 2 2 3 1
4 3 3 3 4 3 4 5 5 7 2 4 2 4 5 5 5 5 6 6 6 6 7 8 8 8 5 3 4 4 3 3 3 5 4 2 1 2 2 1 2 1 1
5 4 3 3 4 4 4 5 5 4 5 5 6 7 6 6 6 5 5 6 5 4 5 6 7 7 7 6 5 6 4 5 6 7 3 3 1 1 1 2 1 1 2
5 4 4 2 2 3 4 5 5 7 7 8 8 9 8 7 3 6 6 6 7 8 8 7 6 7 11 8 6 5 6 5 4 4 3 2 2 2 2 2 3 2 3
4 5 3 4 3 4 5 6 7 8 9 9 9 8 9 6 9 13 10 9 8 9 10 8 9 11 14 17 16 12 6 5 3 3 2 2 3 3 2 3 2 2 3
4 5 3 3 5 5 4 7 8 9 8 10 10 9 10 10 16 17 15 9 9 9 9 9 9 6 10 11 15 15 12 14 8 4 4 3 3 5 5 3 3 3 2
5 5 4 3 5 5 6 8 8 7 8 8 8 9 11 9 15 17 15 11 11 10 9 8 10 8 6 9 9 9 8 7 6 4 5 4 1 4 5 4 5 3 1
6 5 5 5 6 6 8 6 5 8 8 8 7 9 10 9 11 12 11 10 11 11 9 9 7 7 7 7 8 8 6 5 6 11 11 10 7 4 5 4 2 2 1
8 6 5 5 6 7 7 6 4 7 8 7 10 9 9 8 12 13 10 7 11 8 8 9 15 11 14 12 7 5 7 4 4 5 5 7 9 9 7 5 2 1 1
7 6 6 5 6 6 6 4 5 8 9 9 10 8 8 7 10 13 12 7 6 7 7 7 7 17 18 19 14 7 4 3 5 5 4 4 5 4 3 3 3 1 1
9 7 5 5 4 5 7 5 5 6 9 6 8 7 5 6 8 13 14 14 11 10 8 4 7 16 18 17 11 14 12 7 4 5 4 4 3 3 3 4 4 2 1
10 8 5 5 4 4 6 6 5 4 5 5 5 5 4 3 4 13 16 17 14 9 5 11 15 15 15 14 16 14 8 5 4 4 3 2 1 2 4 3 4 3 4
13 10 9 8 5 4 4 3 3 4 4 5 5 5 4 3 4 4 5 6 11 9 10 8 12 14 14 9 7 7 4 4 3 3 2 1 2 3 3 2 3 4 3
10 9 7 6 6 6 4 4 3 1 2 5 3 4 6 4 3 7 7 6 6 9 7 4 4 4 6 5 5 5 4 4 4 2 2 2 2 1 1 1 1 2 2
10 7 7 7 8 7 7 6 9 8 9 9 10 6 1 9 12 13 14 15 14 11 4 6 5 5 5 5 4 5 5 7 3 3 3 2 2 3 3 3 1 1 1
13 10 8 9 8 8 8 8 9 5 9 11 13 13 10 11 15 15 14 15 12 7 7 6 7 6 6 6 6 5 5 3 2 4 4 4 4 3 4 3 3 3 3
12 12 9 5 8 8 7 7 8 9 6 2 5 9 12 13 14 14 14 11 6 8 7 7 7 6 6 6 6 4 4 5 5 4 5 4 4 3 3 3 3 3 3
10 9 9 7 5 6 6 6 7 8 6 6 4 7 7 14 13 12 10 6 7 7 6 7 6 6 6 6 4 4 5 5 4 4 5 5 5 3 5 4 5 6 6
7 11 9 7 6 5 5 6 7 6 8 8 7 8 6 7 6 6 6 7 7 7 6 7 6 6 6 4 5 4 5 5 4 4 3 4 4 5 7 5 6 3 5
8 8 10 7 7 7 6 7 7 7 7 7 7 8 11 8 7 7 7 7 7 7 7 7 6 5 5 4 4 5 6 5 4 4 5 4 4 7 4 3 3 4 3
8 9 9 8 7 7 7 7 8 9 8 9 8 10 18 8 8 8 8 7 7 8 7 7 6 6 4 4 2 5 6 5 4 3 5 4 5 5 3 4 4 3 3
9 10 9 9 8 9 9 8 9 9 9 9 9 8 8 8 8 8 9 8 8 8 7 7 7 7 5 5 5 3 6 4 3 2 5 6 5 5 4 4 3 5 4
10 12 11 10 9 9 10 10 9 11 11 10 9 8 9 9 9 11 9 9 9 8 8 7 6 7 7 5 3 2 4 3 4 6 6 7 5 5 5 4 4 4 3
11 11 11 11 12 10 11 11 10 10 10 10 9 9 10 11 11 10 9 9 9 9 9 7 6 8 9 9 8 8 8 9 8 7 5 6 9 7 4 3 3 4 5
10 11 11 10 11 11 11 11 11 10 10 10 10 10 11 11 11 10 10 11 9 9 8 6 6 9 8 6 8 8 10 9 8 9 5 5 7 5 4 4 5 3 3
Wind_Direction
162 102 36 10 340 334 358 315 305 285 277 262 265 267 234 217 210 183 164 137 141 141 146 149 148 142 143 128 128 118 110 94 111 102 93 160 150 151 125 77 10 79 20
132 112 64 9 341 354 7 335 319 288 302 262 229 232 210 208 177 174 166 146 144 150 161 161 158 143 150 146 123 123 119 113 126 134 114 112 139 161 141 132 96 76 102
121 121 96 36 340 2 20 344 333 318 280 291 211 192 204 171 133 117 125 137 145 145 151 158 155 151 144 127 119 122 105 93 91 126 123 137 105 144 122 151 83 315 282
134 133 100 37 348 9 17 12 356 344 352 30 42 58 62 87 99 105 106 107 102 109 134 142 146 152 149 139 123 120 114 97 95 102 90 112 149 141 142 122 222 228 241
128 119 121 80 20 19 39 44 29 39 39 37 51 55 50 51 53 100 87 80 93 82 60 57 60 89 91 99 123 112 110 100 109 92 105 115 130 164 176 167 208 180 250
134 128 138 96 54 45 48 54 55 60 57 62 62 67 59 48 72 80 91 87 78 85 86 76 72 83 79 84 85 78 85 124 116 118 115 130 171 171 151 178 146 152 268
141 135 106 100 100 70 65 73 64 62 69 69 65 69 69 61 67 74 77 78 80 77 81 84 81 73 90 93 83 80 70 63 66 141 141 148 159 186 158 175 172 180 216
152 132 123 110 102 97 73 71 66 61 65 70 64 69 77 64 73 83 82 85 82 70 71 80 94 90 92 113 105 87 70 57 38 49 81 112 119 172 174 171 178 160 76
158 148 137 132 113 98 92 80 59 78 69 63 53 67 73 63 56 66 88 90 79 65 55 50 60 72 74 105 104 106 93 60 33 56 65 49 25 139 141 102 107 116 260
159 155 141 133 117 110 104 101 84 90 86 80 71 57 54 59 56 60 62 83 87 81 62 56 56 63 60 58 81 89 79 34 23 29 24 28 34 30 61 36 138 167 263
138 138 133 125 112 108 103 93 99 96 90 79 78 53 56 48 61 67 68 73 92 89 73 63 55 67 70 68 71 69 93 136 65 81 64 54 48 41 39 41 43 59 185
128 121 111 111 114 110 104 92 84 95 98 89 91 76 48 53 72 81 91 99 105 104 103 98 87 85 77 72 66 67 71 78 71 63 56 37 31 6 350 348 344 338 257
131 125 107 93 93 87 110 107 102 92 114 111 103 101 87 34 55 84 94 99 97 93 95 98 94 85 80 72 69 67 56 55 61 63 49 32 357 301 316 358 339 330 280
145 144 141 135 113 83 86 82 110 116 111 119 130 122 104 73 68 50 69 78 78 82 83 81 88 87 82 83 68 53 47 49 68 73 44 316 321 9 9 3 13 346 33
146 142 138 120 118 107 70 112 101 39 121 139 132 129 128 118 185 140 132 120 116 117 102 65 59 52 71 65 60 58 52 48 47 35 39 22 25 10 17 17 36 10 49
141 145 151 143 138 131 114 89 65 76 113 139 145 139 51 119 121 125 123 122 125 119 68 109 105 95 86 76 69 67 49 51 36 33 29 31 27 24 355 344 15 19 343
153 155 155 154 153 152 143 140 126 45 78 103 113 115 119 132 125 125 126 127 131 116 95 85 87 78 71 70 67 61 54 18 19 42 45 34 23 13 22 4 355 11 340
150 149 151 172 162 157 166 153 146 150 144 80 99 124 125 125 127 120 115 105 85 77 90 97 92 90 89 86 72 56 35 33 29 24 31 25 18 46 21 4 11 9 346
158 161 163 152 147 151 148 146 134 121 115 114 104 96 112 115 117 107 86 88 97 90 81 75 73 76 76 73 60 56 53 43 28 26 25 25 12 26 29 25 18 24 20
157 148 149 149 143 130 131 136 131 127 128 132 137 137 124 106 101 88 85 94 92 89 85 81 70 70 70 70 66 55 62 45 26 34 35 35 17 35 45 33 28 17 20
152 147 143 141 154 148 145 147 138 139 137 137 138 144 127 117 109 99 95 88 96 98 92 88 79 69 60 64 67 74 75 69 51 50 52 38 39 54 25 33 26 18 20
158 150 148 151 143 139 138 144 141 138 138 133 117 120 118 103 104 101 96 94 94 89 92 96 89 83 74 77 76 82 74 63 49 51 70 57 53 51 35 43 26 15 15
154 146 142 139 147 140 137 140 134 132 127 123 121 119 114 112 109 104 101 97 95 94 92 88 91 85 75 69 57 72 98 105 139 127 84 72 61 55 53 53 26 32 23
159 151 148 144 147 150 145 136 130 130 128 127 124 124 124 119 114 109 107 103 97 90 85 84 85 93 87 72 59 65 90 88 78 84 85 84 77 55 55 52 39 26 24
157 151 148 146 147 139 131 128 131 129 134 133 126 123 121 117 112 108 105 104 104 102 96 94 90 89 87 89 83 72 69 71 80 82 82 85 81 71 63 61 42 28 27
152 144 136 137 138 137 138 138 134 134 131 127 126 123 121 117 113 114 114 112 106 100 98 96 96 97 100 101 105 99 87 78 72 71 75 76 77 63 57 58 50 52 30